METEOR 2-13 DEB

Satellite information

Favourite Embed

Satellite Type and Status

DEBRISIN ORBIT

Key statistics

Satellite METEOR 2-13 DEB at a glance.

Uptime

14493

Days in orbit

Revolutions

≈ 13.9

Per day

Orbit

LEO

Low Earth Orbit

Inclination

82.5

Latest

Satellite identification and parameters

Extended collection of information and parameters for METEOR 2-13 DEB.

Object identification

Identified? True

Debris? True

Object name: METEOR 2-13 DEB

International designator: 1985-119C

Object number (NORAD): 43151

Object ID (CCSDS): 43151

Country: COMMONWEALTH OF INDEPENDENT STATES (CIS)

Current information (Y/N): Y

RCS size: SMALL

Orbital parameters

Period: 103.311 minutes

Inclination: 82.5377 deg

SMA: 7293.32 km

Apoapsis: 932.968 km

Periapsis: 897.402 km

RAAN: 116.6616 deg

Eccentricy: 0.00243827

Argument of periapsis: 154.7338 deg

Mean anomaly: 205.5026 deg

Mean motion: 13.93846149 rev/day

Mean motion (dot): 0.00001847 rev/day2

B* drag term: 0.0013862228 1/REarth

Two-line elements (TLE)

Creation date: Aug. 30, 2025, 3:38 a.m.

Reference frame: TEME

Reference center: EARTH

Epoch: Aug. 29, 2025, 10:52 p.m. UTC

TLE line 0: 0 METEOR 2-13 DEB

TLE line 1: 1 43151U 85119C 25241.95289902 .00001847 00000-0 13862-2 0 9998

TLE line 2: 2 43151 82.5377 116.6616 0024383 154.7338 205.5026 13.93846149407353

Live tracking on map

Real-time ground track for satellite METEOR 2-13 DEB.

In-orbit conjunctions

A list of the most updated potential collisions computed for object METEOR 2-13 DEB.

Target Orbit TCA Probability of collision Miss distance Type
ARIANE 5 R/B MEO 2024-11-10 22:34:00 0.000244109 669.0 (m) ROCKET BODY
LANDSAT 2 SSO 2024-09-24 05:37:55 0.0001687075 111.0 (m) PAYLOAD

Associated space launch

Second generation soviet meteorological satellite

METEOR 2-13 DEB was lifted into orbit during the mission ‘Tsiklon-3 | Meteor-2 13’, on board a Tsiklon-3 space rocket.

The launch took place on Dec. 26, 1985, 1:50 a.m. from 32/1.

For more information about the launch, click the button.

Launch to space Tsiklon-3 | Meteor-2 13
Tsiklon-3 | Meteor-2 13

Agency: N/A

Status: Launch Successful

Launch date: Dec. 26, 1985, 1:50 a.m. UTC

Rocket: Tsiklon-3

Launch pad: 32/1

Location: Plesetsk Cosmodrome, Russian Federation

...

Latest news about this satellite

There are no fresh news available about this satellite. Check back as we update our databases every day.


Newsletter sign-up

Weekly statistics, charts and insights to help you stay on top of the space industry.